2023/12/25 00:00:00, 0.0,-0.8
2023/12/25 00:10:00, 0.0,-0.4
2023/12/25 00:20:00, 0.0,-0.2
2023/12/25 00:30:00, 0.0,-0.2
2023/12/25 00:40:00, 0.0,-0.1
2023/12/25 00:50:00, 0.0,-0.2
2023/12/25 01:00:00, 0.0,-0.9
2023/12/25 01:10:00, 0.0,-0.6
2023/12/25 01:20:00, 0.0,-0.5
2023/12/25 01:30:00, 0.0,-1.0
2023/12/25 01:40:00, 0.0,-0.8
2023/12/25 01:50:00, 0.0,-0.9
2023/12/25 02:00:00, 0.0,-0.6
2023/12/25 02:10:00, 0.0,-0.7
2023/12/25 02:20:00, 0.0, 0.2
2023/12/25 02:30:00, 0.0, 0.2
2023/12/25 02:40:00, 0.0,-0.0
2023/12/25 02:50:00, 0.0,-0.3
2023/12/25 03:00:00, 0.0,-0.9
2023/12/25 03:10:00, 0.0,-1.0
2023/12/25 03:20:00, 0.0,-1.1
2023/12/25 03:30:00, 0.0,-1.2
2023/12/25 03:40:00, 0.0,-0.9
2023/12/25 03:50:00, 0.0,-1.4
2023/12/25 04:00:00, 0.0,-1.4
2023/12/25 04:10:00, 0.0,-1.5
2023/12/25 04:20:00,---,-1.1
2023/12/25 04:30:00, 0.0,-0.5
2023/12/25 04:40:00, 0.0,-0.6
2023/12/25 04:50:00, 0.0,-0.8
2023/12/25 05:00:00, 0.0,-1.2
2023/12/25 05:10:00, 0.0,-0.9
2023/12/25 05:20:00, 0.0,-0.8
2023/12/25 05:30:00, 0.0,-1.4
2023/12/25 05:40:00, 0.0,-1.3
2023/12/25 05:50:00, 0.0,-1.3
2023/12/25 06:00:00, 0.0,-1.5
2023/12/25 06:10:00, 0.0,-1.5
2023/12/25 06:20:00, 0.0,-1.5
2023/12/25 06:30:00, 0.0,-1.6
2023/12/25 06:40:00, 0.0,-1.7
2023/12/25 06:50:00, 0.0,-2.1
2023/12/25 07:00:00, 0.0,-1.9
2023/12/25 07:10:00, 0.0,-2.2
2023/12/25 07:20:00, 0.0,-1.7
2023/12/25 07:30:00, 0.0,-1.7
2023/12/25 07:40:00, 0.0,-1.8
2023/12/25 07:50:00, 0.0,-1.4
2023/12/25 08:00:00, 0.0,-1.4
2023/12/25 08:10:00, 0.0,-1.4
2023/12/25 08:20:00, 0.0,-0.9
2023/12/25 08:30:00, 0.0,-1.2
2023/12/25 08:40:00, 0.0,-0.8
2023/12/25 08:50:00, 0.0,-0.3
2023/12/25 09:00:00, 0.0,-0.3
2023/12/25 09:10:00, 0.0,-0.0
2023/12/25 09:20:00, 0.0, 0.2
2023/12/25 09:30:00, 0.0, 0.4
2023/12/25 09:40:00, 0.0, 0.8
2023/12/25 09:50:00, 0.0, 1.2
2023/12/25 10:00:00, 0.0, 1.8
2023/12/25 10:10:00, 0.0, 1.8
2023/12/25 10:20:00, 0.0, 2.0
2023/12/25 10:30:00,---, 3.0
2023/12/25 10:40:00, 0.0, 4.5
2023/12/25 10:50:00, 0.0, 5.7
2023/12/25 11:00:00, 0.0, 7.2
2023/12/25 11:10:00,16.2, 7.9
2023/12/25 11:20:00,16.1, 6.5
2023/12/25 11:30:00,15.9, 6.1
2023/12/25 11:40:00,16.2, 7.6
2023/12/25 11:50:00,16.1, 7.2
2023/12/25 12:00:00,15.9, 6.7
2023/12/25 12:10:00,15.7, 6.1
2023/12/25 12:20:00,15.4, 5.6
2023/12/25 12:30:00,15.4, 5.4
2023/12/25 12:40:00,15.4, 5.3
2023/12/25 12:50:00,15.3, 5.1
2023/12/25 13:00:00,15.4, 5.2
2023/12/25 13:10:00,15.4, 5.4
2023/12/25 13:20:00,15.6,10.6
2023/12/25 13:30:00,15.9,17.1
2023/12/25 13:40:00,15.5,10.8
2023/12/25 13:50:00,15.1, 8.1
2023/12/25 14:00:00,15.4, 9.3
2023/12/25 14:10:00,15.7,14.9
2023/12/25 14:20:00,15.9,15.6
2023/12/25 14:30:00,15.7,13.0
2023/12/25 14:40:00,15.7, 9.3
2023/12/25 14:50:00,15.7, 6.8
2023/12/25 15:00:00,15.5, 5.1
2023/12/25 15:10:00,15.7, 5.4
2023/12/25 15:20:00,15.2, 7.6
2023/12/25 15:30:00,15.3,12.1
2023/12/25 15:40:00,15.4,13.2
2023/12/25 15:50:00,15.3,10.8
2023/12/25 16:00:00,15.2,12.0
2023/12/25 16:10:00,15.0, 7.3
2023/12/25 16:20:00,14.9, 5.8
2023/12/25 16:30:00,14.9, 4.3
2023/12/25 16:40:00,15.0, 3.6
2023/12/25 16:50:00,15.1, 3.1
2023/12/25 17:00:00,15.1, 2.8
2023/12/25 17:10:00,15.0, 2.0
2023/12/25 17:20:00,15.1, 1.7
2023/12/25 17:30:00,15.1, 1.5
2023/12/25 17:40:00,15.1, 1.8
2023/12/25 17:50:00,15.1, 2.1
2023/12/25 18:00:00,15.1, 1.9
2023/12/25 18:10:00,15.1, 1.5
2023/12/25 18:20:00,15.1, 1.9
2023/12/25 18:30:00,15.1, 1.9
2023/12/25 18:40:00,15.2, 2.2
2023/12/25 18:50:00,15.3, 2.3
2023/12/25 19:00:00,15.3, 2.4
2023/12/25 19:10:00,15.6, 2.3
2023/12/25 19:20:00,15.6, 2.3
2023/12/25 19:30:00,15.5, 1.9
2023/12/25 19:40:00,15.5, 1.8
2023/12/25 19:50:00,15.5, 1.6
2023/12/25 20:00:00,15.4, 1.3
2023/12/25 20:10:00,15.4, 1.5
2023/12/25 20:20:00,15.4, 1.8
2023/12/25 20:30:00,15.4, 1.8
2023/12/25 20:40:00,15.4, 1.6
2023/12/25 20:50:00,15.4, 1.5
2023/12/25 21:00:00,15.4, 1.3
2023/12/25 21:10:00,15.4, 1.4
2023/12/25 21:20:00,15.3, 1.3
2023/12/25 21:30:00,15.3, 1.5
2023/12/25 21:40:00,15.3, 1.5
2023/12/25 21:50:00,15.3, 1.9
2023/12/25 22:00:00,15.3, 1.5
2023/12/25 22:10:00,15.3, 1.8
2023/12/25 22:20:00,15.3, 2.0
2023/12/25 22:30:00,15.3, 1.6
2023/12/25 22:40:00,15.2, 1.9
2023/12/25 22:50:00,15.2, 1.5
2023/12/25 23:00:00,15.2, 1.5
2023/12/25 23:10:00,15.2, 1.5
2023/12/25 23:20:00,15.1, 1.5
2023/12/25 23:30:00,15.1, 1.6
2023/12/25 23:40:00,15.1, 1.2
2023/12/25 23:50:00,15.1, 1.4
